Weather in Lazh'yal

Russia / Mari El Republic     56°52′36″N   49°16′28″E
temp.,
°C
wind,
m/s
gust,
m/s
humid.,
%
clouds,
%
prec.,
mm/h
press.,
hPa
HPBL,
m
4 march, thu
thu400:00−7wsw5119491 0.1 1001306
03:00−6sw5129395 0.3 999373
06:00−5wsw5119499 0.2 996350
09:00−3sw7129299 0.3 994716
12:00−1ssw81296100 0.8 990953
15:000sw101697100 2.1 9871183
18:00−4w9178174 0.3 988753
21:00−6wnw10178886 0.4 991792
5 march, fri
fri500:00−9wnw71492100 0.1 995451
03:00−13wnw5109595 0.1 999191
06:00−17wnw449511 0.0 100063
09:00−14wnw35905 0.0 1002144
12:00−10wsw36860 0.0 1003277
15:00−8wsw589113 0.0 1004499
18:00−8wsw499598 0.1 1005240
21:00−9w479599 0.3 1008223
6 march, sat
sat600:00−12nw3396100 0.3 100972
03:00−15nw349494 0.3 101158
06:00−20nw349684 0.0 101256
09:00−19wnw359642 0.0 1013159
12:00−15wnw359238 0.0 1014309
15:00−14wnw468961 0.0 1013513
18:00−17w339685 0.0 101323
21:00−18w349885 0.0 101431
7 march, sun
sun700:00−19w3310084 0.0 101322
03:00−21wsw2310065 0.0 101220
06:00−21sw3310063 0.0 101123
09:00−17ssw359553 0.0 1010157
12:00−12s479047 0.0 1008434
15:00−11s699071 0.0 1005526
18:00−12s71392100 0.0 1003471
21:00−10s71491100 0.3 1000617
8 march, mon
mon800:00−8s81492100 0.3 996683
03:00−7sse71493100 0.7 993667
06:00−10wsw71389100 0.6 993637
09:00−10wsw7138695 0.6 995602
12:00−8sw71189100 0.0 997678
15:00−7sw5989100 0.1 998712
18:00−9sw1293100 0.0 99721
21:00−11ne1297100 0.1 99721